Location: Drummondville
(45.8830°N, 72.4830°W)
Time: 22:56:54
(UTC-05:00)

Tiangong 2 - Visible Passes

Search period start: 23 January 2018 00:00
Search period end: 02 February 2018 00:00
Orbit: 384 x 390 km, 42.8° (Epoch: 23 January)

Date Brightness Start Highest point End Pass type
(mag) Time Alt. Az. Time Alt. Az. Time Alt. Az.
23 Jan 2.5 05:09:36 35° SE 05:09:36 35° SE 05:11:58 10° E visible
23 Jan 2.0 06:42:26 10° W 06:45:29 43° S 06:48:33 10° ESE visible
24 Jan 1.7 05:45:53 34° SW 05:46:50 47° S 05:49:55 10° ESE visible
25 Jan 3.5 04:49:51 22° ESE 04:49:51 22° ESE 04:51:15 10° ESE visible
25 Jan 2.2 06:22:07 12° WSW 06:24:41 34° SSW 06:27:38 10° SE visible
26 Jan 1.8 05:26:04 42° S 05:26:04 42° S 05:29:04 10° ESE visible
27 Jan 4.4 04:30:02 13° ESE 04:30:02 13° ESE 04:30:25 10° ESE visible
27 Jan 2.6 06:02:18 18° WSW 06:03:48 25° SSW 06:06:30 10° SE visible
28 Jan 3.0 05:06:17 25° SSE 05:06:17 25° SSE 05:08:06 10° SE visible
28 Jan 3.6 06:40:10 10° SW 06:41:23 12° SSW 06:42:35 10° S visible
29 Jan 3.0 05:42:34 17° SSW 05:42:50 18° SSW 05:45:03 10° SSE visible
30 Jan 4.1 04:46:38 12° SE 04:46:38 12° SE 04:46:54 10° SE visible
